GONETS D1 8

Satellite information

Favourite Embed

Satellite Type and Status

PAYLOADIN ORBIT

Key statistics

Satellite GONETS D1 8 at a glance.

Uptime

8653

Days in orbit

Revolutions

≈ 12.6

Per day

Orbit

LEO

Low Earth Orbit

Inclination

82.5

Latest

Satellite identification and parameters

Extended collection of information and parameters for GONETS D1 8.

Object identification

Identified? True

Debris? False

Object name: GONETS D1 8

International designator: 2001-058E

Object number (NORAD): 27059

Object ID (CCSDS): 27059

Country: COMMONWEALTH OF INDEPENDENT STATES (CIS)

Current information (Y/N): Y

RCS size: MEDIUM

Orbital parameters

Period: 114.145 minutes

Inclination: 82.5423 deg

SMA: 7794.699 km

Apoapsis: 1418.503 km

Periapsis: 1414.625 km

RAAN: 34.7627 deg

Eccentricy: 0.00024873

Argument of periapsis: 153.5802 deg

Mean anomaly: 206.5415 deg

Mean motion: 12.61547917 rev/day

Mean motion (dot): 0.00000023 rev/day2

B* drag term: 0.000070795628 1/REarth

Two-line elements (TLE)

Creation date: Sept. 6, 2025, 2:09 a.m.

Reference frame: TEME

Reference center: EARTH

Epoch: Sept. 5, 2025, 10:51 p.m. UTC

TLE line 0: 0 GONETS D1 8

TLE line 1: 1 27059U 01058E 25248.95257137 .00000023 00000-0 70796-4 0 9995

TLE line 2: 2 27059 82.5423 34.7627 0002487 153.5802 206.5415 12.61547917 90738

Live tracking on map

Real-time ground track for satellite GONETS D1 8.

In-orbit conjunctions

There are no conjunctions computed for GONETS D1 8, at the moment. Check back to stay up to date, as we update our databases every day.

Go to all conjunctions

Associated space launch

Gonets- satellite were the civilian derivate of the military Strela-3 satellite system. The Gonets system was offered to support international health organizations to meet their global communications needs for the transfer of medical data and records to remote sites. Strela-3 was second generation of strategic store-dump military communications satellite. Development of this generation to replace the first generation Strela-1M and Strela-2M satellites began in 1973.

GONETS D1 8 was lifted into orbit during the mission ‘Tsiklon-3 | Strela-3 128 to 130 & Gonets 10 to 12’, on board a Tsiklon-3 space rocket.

The launch took place on Dec. 28, 2001, 3:24 a.m. from 32/1.

For more information about the launch, click the button.

Launch to space Tsiklon-3 | Strela-3 128 to 130 & Gonets 10 to 12
Tsiklon-3 | Strela-3 128 to 130 & Gonets 10 to 12

Agency: N/A

Status: Launch Successful

Launch date: Dec. 28, 2001, 3:24 a.m. UTC

Rocket: Tsiklon-3

Launch pad: 32/1

Location: Plesetsk Cosmodrome, Russian Federation

...

Latest news about this satellite

There are no fresh news available about this satellite. Check back as we update our databases every day.


Newsletter sign-up

Weekly statistics, charts and insights to help you stay on top of the space industry.